EW9733 Weather Reports


Display with metric or nautical units.
time (UTC)temp
F
wind
direction
speed
MPH
gust
MPH
rain 1hr
in
rain 24hr
in
rain mn
in
humidity
%
barometer
mb
20230204063003 19 319 4.0 14.0 0.00 0.01 0.00 48 1032.0
20230204061500 19 317 2.0 8.0 0.00 0.01 0.00 48 1031.9
20230204060059 19 304 1.0 11.0 0.00 0.01 0.00 47 1031.8
20230204054602 19 38 3.0 15.0 0.00 0.01 0.00 43 1031.6
20230204053059 20 304 4.0 18.0 0.00 0.01 0.00 44 1031.4
20230204051551 20 319 3.0 15.0 0.00 0.01 0.00 45 1031.0
20230204050047 20 277 2.0 13.0 0.00 0.01 0.00 45 1030.5
20230204044544 20 273 2.0 12.0 0.00 0.01 0.00 43 1030.2
20230204043042 20 80 4.0 17.0 0.00 0.01 0.00 44 1030.0
20230204041542 21 78 3.0 15.0 0.00 0.01 0.00 44 1029.7
20230204040037 21 348 1.0 9.0 0.00 0.01 0.00 44 1029.4
20230204034535 21 280 3.0 16.0 0.00 0.01 0.00 42 1029.2
20230204033035 21 306 7.0 19.0 0.00 0.01 0.00 42 1029.3
20230204031529 22 331 4.0 18.0 0.00 0.01 0.00 41 1029.1
20230204030037 22 309 2.0 19.0 0.00 0.01 0.00 43 1028.7
20230204024525 22 316 3.0 14.0 0.00 0.01 0.00 41 1028.3
20230204023029 23 215 4.0 16.0 0.00 0.01 0.00 45 1028.0
20230204021517 23 232 4.0 12.0 0.00 0.01 0.00 46 1027.7
20230204020035 23 305 2.0 10.0 0.00 0.01 0.00 45 1027.5
20230204014519 23 302 4.0 10.0 0.00 0.01 0.00 47 1027.2
20230204013009 24 319 2.0 13.0 0.00 0.01 0.00 46 1026.9
20230204011505 24 324 3.0 12.0 0.00 0.01 0.00 44 1026.4
20230204010005 24 26 2.0 14.0 0.00 0.01 0.00 43 1026.2
20230204004559 25 298 5.0 11.0 0.00 0.01 0.00 41 1025.9
20230204003054 25 283 3.0 12.0 0.00 0.01 0.00 42 1025.5
20230204001552 25 311 6.0 13.0 0.00 0.01 0.00 41 1025.2
20230204000049 26 300 5.0 19.0 0.00 0.01 0.00 42 1025.0
20230203234545 26 289 8.0 19.0 0.00 0.01 0.00 42 1024.5
20230203233042 26 304 4.0 19.0 0.00 0.01 0.00 40 1024.3
20230203231540 26 292 5.0 18.0 0.00 0.01 0.00 42 1023.8
20230203230039 27 301 4.0 12.0 0.00 0.01 0.00 43 1023.6
20230203224535 27 315 3.0 13.0 0.00 0.01 0.00 42 1023.1
20230203223030 27 313 5.0 12.0 0.00 0.01 0.00 43 1022.6
20230203221525 28 287 6.0 17.0 0.00 0.01 0.00 41 1022.1
20230203220027 28 304 6.0 16.0 0.00 0.01 0.00 42 1021.9
20230203214532 29 304 5.0 16.0 0.00 0.01 0.00 41 1021.5
20230203213016 30 308 3.0 22.0 0.00 0.01 0.00 42 1021.1
20230203211513 30 290 7.0 21.0 0.00 0.01 0.00 41 1020.6
20230203210024 31 307 8.0 18.0 0.00 0.01 0.00 38 1020.3
20230203204505 31 220 6.0 17.0 0.00 0.01 0.00 39 1019.7
20230203203002 32 300 8.0 16.0 0.00 0.01 0.00 38 1019.4
20230203201600 32 261 5.0 15.0 0.00 0.01 0.00 41 1019.1
20230203200058 33 317 4.0 14.0 0.00 0.01 0.00 43 1018.6
20230203194555 32 279 3.0 15.0 0.00 0.01 0.00 44 1018.3
20230203193053 33 305 7.0 20.0 0.00 0.01 0.00 43 1018.0
20230203191559 33 327 6.0 15.0 0.00 0.01 0.00 44 1017.6
20230203190058 33 244 4.0 18.0 0.00 0.01 0.00 42 1017.7
20230203184553 34 15 4.0 14.0 0.00 0.01 0.00 41 1017.7
20230203183049 34 270 5.0 13.0 0.00 0.01 0.00 41 1017.5
20230203181546 34 301 4.0 14.0 0.00 0.01 0.00 43 1017.0
20230203180048 34 44 6.0 21.0 0.00 0.01 0.00 44 1017.0
20230203174543 34 282 5.0 15.0 0.00 0.01 0.00 44 1017.0
20230203173042 34 294 5.0 15.0 0.00 0.01 0.00 47 1017.0
20230203171539 34 298 2.0 12.0 0.00 0.01 0.00 50 1017.0
20230203170037 34 360 4.0 14.0 0.00 0.01 0.00 49 1017.1
20230203164536 35 36 3.0 16.0 0.00 0.01 0.00 56 1016.8
20230203163042 35 296 4.0 12.0 0.00 0.01 0.00 54 1016.8
20230203161623 34 257 4.0 14.0 0.00 0.01 0.00 54 1016.6
20230203160056 34 311 4.0 14.0 0.00 0.01 0.00 57 1016.8
20230203154551 0 0.0 0.0 0.00 0.01 0.00
20230203153102 35 288 6.0 20.0 0.01 0.01 0.01 62 1016.3
20230203151538 34 264 3.0 11.0 0.01 0.01 0.01 67 1015.5
20230203150038 34 27 3.0 14.0 0.01 0.01 0.01 70 1014.8
20230203144533 33 296 3.0 8.0 0.01 0.01 0.01 78 1015.0
20230203143011 33 290 1.0 5.0 0.00 0.00 0.00 84 1015.0
20230203141508 32 288 1.0 7.0 0.00 0.00 0.00 87 1014.7
20230203140006 33 307 2.0 7.0 0.00 0.00 0.00 85 1015.0
20230203134502 34 14 3.0 12.0 0.00 0.00 0.00 82 1014.1
20230203133100 37 48 1.0 15.0 0.00 0.00 0.00 75 1013.8
20230203131602 38 323 3.0 13.0 0.00 0.00 0.00 65 1013.1
20230203130100 37 319 3.0 7.0 0.00 0.00 0.00 66 1012.2
20230203124531 36 316 2.0 8.0 0.00 0.00 0.00 68 1012.1
20230203123101 36 277 2.0 8.0 0.00 0.00 0.00 68 1011.9
20230203121605 36 261 2.0 7.0 0.00 0.00 0.00 68 1011.5
20230203120055 36 298 2.0 8.0 0.00 0.00 0.00 69 1011.3
20230203114554 36 283 3.0 10.0 0.00 0.00 0.00 70 1011.2
20230203113053 36 264 3.0 10.0 0.00 0.00 0.00 72 1011.2
20230203111551 36 301 1.0 9.0 0.00 0.00 0.00 75 1010.9
20230203110050 36 294 1.0 7.0 0.00 0.00 0.00 79 1010.9
20230203104549 35 279 2.0 8.0 0.00 0.00 0.00 82 1011.1
20230203103047 35 274 2.0 7.0 0.00 0.00 0.00 85 1010.9
20230203101545 35 267 2.0 7.0 0.00 0.00 0.00 85 1010.7
20230203100044 36 269 2.0 7.0 0.00 0.00 0.00 86 1010.5
20230203094550 36 261 3.0 6.0 0.00 0.00 0.00 87 1010.2
20230203093043 36 319 1.0 5.0 0.00 0.00 0.00 88 1010.3
20230203091542 37 291 2.0 5.0 0.00 0.00 0.00 89 1009.9
20230203090042 37 272 2.0 7.0 0.00 0.00 0.00 89 1010.1
20230203084541 37 261 2.0 6.0 0.00 0.00 0.00 89 1010.1
20230203083040 37 246 1.0 7.0 0.00 0.00 0.00 89 1010.3
20230203081538 37 281 3.0 7.0 0.00 0.00 0.00 89 1010.4
20230203080037 37 301 3.0 7.0 0.00 0.00 0.00 89 1010.5
20230203074536 37 295 2.0 7.0 0.00 0.00 0.00 88 1010.4
20230203073036 38 296 2.0 12.0 0.00 0.00 0.00 88 1010.3
20230203071534 38 257 3.0 9.0 0.00 0.00 0.00 88 1010.6
20230203070036 38 215 3.0 9.0 0.00 0.00 0.00 88 1010.8
20230203064533 38 234 4.0 13.0 0.00 0.00 0.00 88 1010.7